Location: Carella
(45.8167°N, 9.2667°E)
Time: 23:44:33
(UTC+00:00)

Cosmos 1603 - Pass Details

Date: 30 March 2020
Orbit: 831 x 859 km, 71.0° (Epoch: 29 May)

Event Time Altitude Azimuth Distance (km) Brightness Sun altitude
Rises 20:34:39 0° 217° (SW) 3,382 6.8 -27.1°
Reaches altitude 10° 20:37:08 10° 221° (SW) 2,447 6.1 -27.4°
Maximum altitude 20:42:40 58° 300° (WNW) 971 4.2 -28.1°
Drops below altitude 10° 20:48:12 10° 20° (NNE) 2,450 6.3 -28.8°
Sets 20:50:41 0° 24° (NNE) 3,387 7.1 -29.1°
